| time (UTC) | temp C | wind direction | speed KPH | gust KPH | rain 1hr cm | rain 24hr cm | rain mn cm | humidity % | barometer mb |
| 20260510091537 | 3 | 235 | 1.6 | 1.6 | 0.00 | 0.00 | 0.00 | 62 | 1017.4 |
| 20260510090046 | 3 | 236 | 0.0 | 3.2 | 0.00 | 0.00 | 0.00 | 61 | 1017.1 |
| 20260510084533 | 3 | 233 | 0.0 | 3.2 | 0.00 | 0.00 | 0.00 | 62 | 1017.0 |
| 20260510083027 | 3 | 246 | 1.6 | 4.8 | 0.00 | 0.00 | 0.00 | 61 | 1016.7 |
| 20260510081526 | 3 | 227 | 0.0 | 1.6 | 0.00 | 0.00 | 0.00 | 60 | 1016.7 |
| 20260510080008 | 3 | 250 | 0.0 | 3.2 | 0.00 | 0.00 | 0.00 | 58 | 1016.3 |
| 20260510074507 | 4 | 250 | 1.6 | 4.8 | 0.00 | 0.00 | 0.00 | 57 | 1016.2 |
| 20260510073005 | 4 | 229 | 1.6 | 6.4 | 0.00 | 0.00 | 0.00 | 56 | 1016.3 |
| 20260510071504 | 6 | 260 | 1.6 | 4.8 | 0.00 | 0.00 | 0.00 | 53 | 1016.2 |
| 20260510070002 | 6 | 271 | 1.6 | 3.2 | 0.00 | 0.00 | 0.00 | 52 | 1016.3 |
| 20260510064608 | 6 | 260 | 1.6 | 4.8 | 0.00 | 0.00 | 0.00 | 52 | 1016.3 |
| 20260510063056 | 6 | 293 | 0.0 | 1.6 | 0.00 | 0.00 | 0.00 | 50 | 1016.4 |
| 20260510061556 | 7 | 325 | 0.0 | 4.8 | 0.00 | 0.00 | 0.00 | 49 | 1016.4 |
| 20260510060040 | 7 | 319 | 1.6 | 6.4 | 0.00 | 0.00 | 0.00 | 47 | 1016.2 |
| 20260510054536 | 7 | 321 | 1.6 | 4.8 | 0.00 | 0.00 | 0.00 | 48 | 1016.0 |
| 20260510053033 | 7 | 321 | 1.6 | 6.4 | 0.00 | 0.00 | 0.00 | 47 | 1015.8 |
| 20260510051531 | 7 | 328 | 3.2 | 8.0 | 0.00 | 0.00 | 0.00 | 47 | 1015.5 |
| 20260510050030 | 7 | 326 | 3.2 | 6.4 | 0.00 | 0.00 | 0.00 | 46 | 1015.4 |
| 20260510044534 | 7 | 323 | 1.6 | 3.2 | 0.00 | 0.00 | 0.00 | 45 | 1015.3 |
| 20260510043026 | 8 | 326 | 0.0 | 4.8 | 0.00 | 0.00 | 0.00 | 44 | 1015.3 |
| 20260510041524 | 8 | 314 | 3.2 | 6.4 | 0.00 | 0.00 | 0.00 | 42 | 1015.0 |
| 20260510040005 | 8 | 323 | 3.2 | 6.4 | 0.00 | 0.00 | 0.00 | 40 | 1014.8 |
| 20260510034501 | 9 | 321 | 3.2 | 6.4 | 0.00 | 0.00 | 0.00 | 39 | 1014.7 |
| 20260510033101 | 9 | 322 | 1.6 | 6.4 | 0.00 | 0.00 | 0.00 | 39 | 1014.6 |
| 20260510031540 | 9 | 327 | 3.2 | 8.0 | 0.00 | 0.00 | 0.00 | 37 | 1014.5 |
| 20260510030040 | 10 | 320 | 4.8 | 11.3 | 0.00 | 0.00 | 0.00 | 37 | 1014.2 |
| 20260510024519 | 10 | 320 | 4.8 | 12.9 | 0.00 | 0.00 | 0.00 | 36 | 1013.9 |
| 20260510023013 | 10 | 314 | 6.4 | 11.3 | 0.00 | 0.00 | 0.00 | 35 | 1013.6 |
| 20260510021552 | 11 | 338 | 4.8 | 11.3 | 0.00 | 0.00 | 0.00 | 34 | 1013.2 |
| 20260510020047 | 11 | 322 | 6.4 | 12.9 | 0.00 | 0.00 | 0.00 | 33 | 1012.9 |
| 20260510014527 | 12 | 347 | 8.0 | 12.9 | 0.00 | 0.00 | 0.00 | 31 | 1012.5 |
| 20260510013024 | 12 | 309 | 6.4 | 14.5 | 0.00 | 0.00 | 0.00 | 31 | 1012.2 |
| 20260510011501 | 13 | 337 | 8.0 | 17.7 | 0.00 | 0.00 | 0.00 | 30 | 1011.9 |
| 20260510010137 | 13 | 343 | 9.7 | 17.7 | 0.00 | 0.00 | 0.00 | 29 | 1011.7 |
| 20260510004537 | 14 | 326 | 12.9 | 25.7 | 0.00 | 0.00 | 0.00 | 28 | 1011.3 |
| 20260510003033 | 15 | 314 | 8.0 | 24.1 | 0.00 | 0.00 | 0.00 | 27 | 1011.1 |
| 20260510001512 | 16 | 338 | 14.5 | 27.4 | 0.00 | 0.00 | 0.00 | 26 | 1010.8 |
| 20260510000011 | 16 | 319 | 12.9 | 24.1 | 0.00 | 0.00 | 0.00 | 25 | 1010.6 |
| 20260509234613 | 16 | 319 | 17.7 | 27.4 | 0.00 | 0.00 | 0.00 | 25 | 1010.6 |
| 20260509233050 | 16 | 334 | 9.7 | 29.0 | 0.00 | 0.00 | 0.00 | 25 | 1010.3 |
| 20260509231533 | 17 | 312 | 9.7 | 22.5 | 0.00 | 0.00 | 0.00 | 25 | 1010.2 |
| 20260509230030 | 17 | 333 | 9.7 | 25.7 | 0.00 | 0.00 | 0.00 | 26 | 1010.0 |
| 20260509224511 | 17 | 313 | 11.3 | 30.6 | 0.00 | 0.00 | 0.00 | 25 | 1009.7 |
| 20260509223014 | 17 | 4 | 6.4 | 24.1 | 0.00 | 0.00 | 0.00 | 26 | 1009.6 |
| 20260509221550 | 17 | 316 | 9.7 | 24.1 | 0.00 | 0.00 | 0.00 | 24 | 1009.3 |
| 20260509220047 | 17 | 330 | 17.7 | 32.2 | 0.00 | 0.00 | 0.00 | 25 | 1009.1 |
| 20260509214533 | 17 | 318 | 11.3 | 29.0 | 0.00 | 0.00 | 0.00 | 26 | 1009.0 |
| 20260509213031 | 17 | 300 | 16.1 | 33.8 | 0.00 | 0.00 | 0.00 | 26 | 1009.0 |
| 20260509211537 | 17 | 345 | 8.0 | 30.6 | 0.00 | 0.00 | 0.00 | 27 | 1008.9 |
| 20260509210027 | 17 | 345 | 8.0 | 30.6 | 0.00 | 0.00 | 0.00 | 28 | 1008.8 |
| 20260509204526 | 17 | 307 | 14.5 | 27.4 | 0.00 | 0.00 | 0.00 | 27 | 1008.7 |
| 20260509203029 | 17 | 306 | 19.3 | 35.4 | 0.00 | 0.00 | 0.00 | 27 | 1008.7 |
| 20260509201524 | 17 | 307 | 11.3 | 25.7 | 0.00 | 0.00 | 0.00 | 29 | 1008.5 |
| 20260509200022 | 17 | 304 | 14.5 | 29.0 | 0.00 | 0.00 | 0.00 | 29 | 1008.4 |
| 20260509194524 | 17 | 300 | 14.5 | 29.0 | 0.00 | 0.00 | 0.00 | 31 | 1008.2 |
| 20260509193019 | 17 | 319 | 11.3 | 30.6 | 0.00 | 0.00 | 0.00 | 32 | 1008.0 |
| 20260509191518 | 17 | 7 | 14.5 | 37.0 | 0.00 | 0.00 | 0.00 | 31 | 1007.8 |
| 20260509190019 | 16 | 319 | 17.7 | 33.8 | 0.00 | 0.00 | 0.00 | 31 | 1007.8 |
| 20260509184526 | 16 | 33 | 17.7 | 35.4 | 0.00 | 0.00 | 0.00 | 34 | 1007.8 |
| 20260509183016 | 16 | 330 | 6.4 | 25.7 | 0.00 | 0.00 | 0.00 | 36 | 1007.7 |
| 20260509181559 | 16 | 300 | 9.7 | 33.8 | 0.00 | 0.00 | 0.00 | 35 | 1007.6 |
| 20260509180049 | 16 | 304 | 12.9 | 41.8 | 0.00 | 0.00 | 0.00 | 35 | 1007.6 |
| 20260509174529 | 16 | 316 | 6.4 | 29.0 | 0.00 | 0.00 | 0.00 | 37 | 1007.2 |
| 20260509173028 | 16 | 345 | 14.5 | 33.8 | 0.00 | 0.00 | 0.00 | 37 | 1007.2 |
| 20260509171507 | 16 | 7 | 11.3 | 22.5 | 0.00 | 0.00 | 0.00 | 39 | 1007.1 |
| 20260509170005 | 15 | 327 | 12.9 | 29.0 | 0.00 | 0.00 | 0.00 | 42 | 1007.2 |
| 20260509164549 | 15 | 106 | 9.7 | 38.6 | 0.00 | 0.00 | 0.00 | 46 | 1007.2 |
| 20260509163040 | 15 | 302 | 12.9 | 27.4 | 0.00 | 0.00 | 0.00 | 47 | 1006.9 |
| 20260509161520 | 15 | 51 | 4.8 | 35.4 | 0.00 | 0.00 | 0.00 | 48 | 1006.7 |
| 20260509160019 | 15 | 323 | 9.7 | 32.2 | 0.00 | 0.00 | 0.00 | 53 | 1006.5 |
| 20260509154600 | 14 | 339 | 12.9 | 29.0 | 0.00 | 0.00 | 0.00 | 55 | 1006.5 |
| 20260509153105 | 14 | 281 | 14.5 | 25.7 | 0.00 | 0.00 | 0.00 | 56 | 1006.5 |
| 20260509151542 | 14 | 311 | 16.1 | 35.4 | 0.00 | 0.00 | 0.00 | 58 | 1006.2 |
| 20260509150041 | 14 | 319 | 11.3 | 32.2 | 0.00 | 0.00 | 0.00 | 61 | 1006.0 |
| 20260509144531 | 13 | 343 | 12.9 | 29.0 | 0.00 | 0.00 | 0.00 | 63 | 1005.9 |
| 20260509143023 | 14 | 311 | 12.9 | 29.0 | 0.00 | 0.00 | 0.00 | 61 | 1005.8 |
| 20260509141507 | 14 | 301 | 12.9 | 24.1 | 0.00 | 0.00 | 0.00 | 64 | 1005.5 |
| 20260509140005 | 13 | 306 | 9.7 | 29.0 | 0.00 | 0.00 | 0.00 | 65 | 1005.2 |
| 20260509134548 | 13 | 340 | 11.3 | 24.1 | 0.00 | 0.00 | 0.00 | 67 | 1005.1 |
| 20260509133048 | 13 | 311 | 8.0 | 24.1 | 0.00 | 0.00 | 0.00 | 65 | 1005.1 |
| 20260509131550 | 12 | 316 | 6.4 | 19.3 | 0.00 | 0.00 | 0.00 | 63 | 1004.6 |
| 20260509130057 | -17 | 0.0 | 0.0 | 0.00 | 0.00 | 0.00 | 1004.2 | ||
| 20260509124542 | -17 | 0.0 | 0.0 | 0.00 | 0.00 | 0.00 | 1004.4 | ||
| 20260509123034 | -17 | 0.0 | 0.0 | 0.00 | 0.00 | 0.00 | 1004.3 | ||
| 20260509121530 | -17 | 0.0 | 0.0 | 0.00 | 0.00 | 0.00 | 1003.7 | ||
| 20260509120031 | -17 | 0.0 | 0.0 | 0.00 | 0.00 | 0.00 | 1004.1 | ||
| 20260509114503 | -17 | 0.0 | 0.0 | 0.00 | 0.00 | 0.00 | 1004.2 | ||
| 20260509113111 | -17 | 0.0 | 0.0 | 0.00 | 0.00 | 0.00 | 1004.0 | ||
| 20260509111537 | -17 | 0.0 | 0.0 | 0.00 | 0.00 | 0.00 | 1003.7 | ||
| 20260509110035 | 10 | 306 | 1.6 | 4.8 | 0.00 | 0.00 | 0.00 | 55 | 1003.5 |
| 20260509104522 | 10 | 297 | 0.0 | 6.4 | 0.00 | 0.00 | 0.00 | 55 | 1002.9 |
| 20260509103021 | 10 | 294 | 1.6 | 4.8 | 0.00 | 0.00 | 0.00 | 55 | 1002.7 |
| 20260509101520 | 8 | 309 | 4.8 | 24.1 | 0.00 | 0.00 | 0.00 | 56 | 1002.4 |
| 20260509100022 | 8 | 229 | 12.9 | 16.1 | 0.00 | 0.00 | 0.00 | 55 | 1001.5 |
| 20260509094518 | 8 | 229 | 11.3 | 16.1 | 0.00 | 0.00 | 0.00 | 54 | 1001.6 |
| 20260509093018 | 8 | 229 | 9.7 | 16.1 | 0.00 | 0.00 | 0.00 | 55 | 1001.7 |